[Iaude] MPEC U255: 2022 QD265 [a=1.20,e=0.29,i=34.7,H=28.5]

mpec at marsden.cfa.harvard.edu mpec at marsden.cfa.harvard.edu
Wed Oct 25 17:24:04 EDT 2023


M.P.E.C. 2023-U255                             Issued 2023 October 25, 21:22 UT

     The Minor Planet Electronic Circulars contain information on unusual
         minor planets, routine data on comets and natural satellites,
         and occasional editorial announcements.  They are published
    on behalf of Division F of the International Astronomical Union by the
          Minor Planet Center, Smithsonian Astrophysical Observatory,
                          Cambridge, MA 02138, U.S.A.
			  
             Prepared using the Tamkin Foundation Computer Network

                              MPC at CFA.HARVARD.EDU
            URL https://www.minorplanetcenter.net/    ISSN 1523-6714

                                   2022 QD265                                   


Observations:
     K22QQ5D* C2022 08 27.58427922 52 00.281-16 37 15.06         17.3 GVEU255P07
     K22QQ5D  C2022 08 27.63984122 32 02.724-09 53 51.04         16.4 GVEU255P07
     K22QQ5D  C2022 08 27.63994922 32 00.293-09 52 59.99         16.4 GVEU255P07
     K22QQ5D  C2022 08 27.68768122 13 16.128-03 15 25.60         16.6 GVEU255P07
     K22QQ5D  C2022 08 27.73546221 53 16.582+03 56 15.61         16.7 GVEU255P07

Observer details:
P07 Space Surveillance Telescope, HEH Station.  Observers M. Blythe, R.
    Brungard, P. Festler, T. McVey, J. Paige, G. Spitz, L. Banks.  Measurers
    M. Cornell, M. Kotson, A. Lue, R. Rios, J. Ruprecht, J. Vaillancourt, J.
    Varey, H. Viggh, D. Woods, R. Monardez.  3.5-m f/1. Reflector + CCD.

Orbital elements:
2022 QD265                                               Earth MOID = 0.0034 AU
Epoch 2023 Sept. 13.0 TT = JDT 2460200.5                Veres                   
M 242.42635              (2000.0)            P               Q                  
n   0.74999694     Peri.   72.82397     +0.60935646     -0.75270861             
a   1.1997656      Node   334.03837     +0.31295048     +0.51712505             
e   0.2878700      Incl.   34.70234     +0.72852365     +0.40744500             
P   1.31           H   28.59          G   0.15           U   9                  
Residuals in seconds of arc
220827 P07  0.0   0.2+    220827 P07  0.0   0.0     220827 P07  0.0   0.1+
220827 P07  0.1-  0.2-    220827 P07  0.0   0.0

Ephemeris:
2022 QD265               a,e,i = 1.20, 0.29, 35                  q = 0.8544
Date    TT    R. A. (2000) Decl.     Delta      r    Elong.  Phase     V
2023 09 25    14 54 07.2 -42 56 58   1.6518  1.3853    56.8    37.3    31.9
...
2023 10 10    15 53 08.6 -42 19 26   1.6775  1.3323    52.6    36.5    31.8
...
2023 10 18    16 25 08.6 -41 26 34   1.6883  1.3013    50.3    36.1    31.8
...
2023 10 24    16 49 04.7 -40 30 37   1.6949  1.2769    48.6    35.7    31.7
2023 10 25    16 53 02.9 -40 19 53   1.6959  1.2728    48.3    35.7    31.7
2023 10 26    16 57 00.7 -40 08 46   1.6968  1.2686    48.0    35.6    31.7
...
2023 11 01    17 20 36.3 -38 53 33   1.7018  1.2430    46.3    35.2    31.7
...
2023 11 09    17 51 25.5 -36 50 42   1.7063  1.2077    43.9    34.7    31.6
...
2023 11 24    18 46 37.4 -31 52 56   1.7071  1.1387    39.7    33.7    31.4

M. P. C. Staff               (C) Copyright 2023 MPC           M.P.E.C. 2023-U255





More information about the Iaude mailing list